Back to catalog

FENGYUN 1C DEB

AliveSSO
NORAD 29940·DEBRIS·🇨🇳 China

Launched May 10, 1999 from Taiyuan Satellite Launch Center

Loading…

Next Passes (next 24 hours)

TLE

FreshSource: Space-Track

Epoch: Sep 13, 2026, 00:18 UTC

1 29940U 99025JN  26256.01269721  .00000699  00000-0  34317-3 0  9993
2 29940  98.6193 263.2705 0074326  29.7877  24.9428 14.19406759 13558

Track FENGYUN 1C DEB in real time with AllMySat

Download on the App Store